Regional Weather Roundup
Issued by NWS

Home | Current Version | Previous Version | Text Only | Print | Product List | Glossary On
Versions: 1 2 3 4 5 6 7 8 9 10 11 12 13 14 15 16 17 18 19 20 21 22 23 24 25 26 27 28 29 30 31 32 33 34 35 36 37 38 39 40 41 42 43 44 45 46 47 48 49 50
000
ASUS43 KOAX 271710
RWRNE

WEATHER ROUNDUP FOR NEBRASKA
NATIONAL WEATHER SERVICE OMAHA NE
1200 PM CDT WED AUG 27 2014

NOTES: SATELLITE DATA IS BEING USED TO AUGMENT CLOUD COVER ABOVE
       12000 FEET.
       "FAIR" INDICATES FEW OR NO CLOUDS BELOW 12,000 FEET WITH NO
       SIGNIFICANT WEATHER AND/OR OBSTRUCTIONS TO VISIBILITY.

  * THESE STATIONS DO NOT REPORT WEATHER SUCH AS RAIN...SNOW OR FOG.

NEZ001>004-019>022-054>056-271800-
NEBRASKA PANHANDLE

CITY           SKY/WX    TMP DP  RH WIND       PRES   REMARKS
SCOTTSBLUFF    CLOUDY    71  63  75 E15       30.11S
ALLIANCE       CLOUDY    73  63  70 SE15G22   30.13S
CHADRON        CLOUDY    72  61  68 E8        30.10F
KIMBALL        PTSUNNY   73  58  60 S10       30.14F
SIDNEY         PTSUNNY   74  60  61 SE13      30.14F
$$

NEZ057>060-069>072-079>082-271800-
SOUTHWEST NEBRASKA

CITY           SKY/WX    TMP DP  RH WIND       PRES   REMARKS
NORTH PLATTE   CLOUDY    73  67  81 E7        30.13F
IMPERIAL       PTSUNNY   74  65  73 S12       30.12F
LEXINGTON      CLOUDY    72  68  87 E9        30.15S
MCCOOK         PTSUNNY   74  67  78 SE12      30.13S
OGALLALA       CLOUDY    73  62  68 S14       30.11F
$$

NEZ005>010-023>029-035>040-094-271800-
NORTH CENTRAL NEBRASKA

CITY           SKY/WX    TMP DP  RH WIND       PRES   REMARKS
VALENTINE      CLOUDY    75  67  76 E8        30.12F
AINSWORTH      CLOUDY    70  65  85 SE9       30.15S
BROKEN BOW     CLOUDY    71  67  87 E12       30.16R
O`NEILL        LGT RAIN  69  67  94 E8        30.14F
ORD            CLOUDY    68  65  90 SE9       30.15R
THEDFORD       CLOUDY    73  66  80 SE9       30.15F
$$

NEZ041-046>049-061>064-073>077-083>087-271800-
SOUTH CENTRAL NEBRASKA

CITY           SKY/WX    TMP DP  RH WIND       PRES   REMARKS
GRAND ISLAND   CLOUDY    71  67  87 E10       30.17S
AURORA         CLOUDY    70  70 100 E7        30.16F
HASTINGS       CLOUDY    71  65  81 E13       30.16S
HEBRON         CLOUDY    77  70  78 E8        30.13S
HOLDREGE       LGT RAIN  71  68  91 E7        30.15S
KEARNEY *      CLOUDY    70  66  88 NE12      30.16F
YORK           LGT RAIN  72 N/A N/A SE7       30.16F
$$

NEZ011>018-030>034-042>045-271800-
NORTHEAST NEBRASKA

CITY           SKY/WX    TMP DP  RH WIND       PRES   REMARKS
NORFOLK        LGT RAIN  68  66  93 SE17      30.12F
ALBION         CLOUDY    67  65  93 SE7       30.15F
BLAIR          LGT RAIN  70  68  94 E9        30.16F
FREMONT        LGT RAIN  70  68  93 SE9       30.16F
TEKAMAH        LGT RAIN  69  67  93 E7        30.15
WAYNE          LGT RAIN  67  66  96 E7        30.13F
$$

NEZ050>053-065>068-078-088>093-271800-
SOUTHEAST NEBRASKA

CITY           SKY/WX    TMP DP  RH WIND       PRES   REMARKS
LINCOLN        LGT RAIN  70  68  93 E8        30.17S FOG
OMAHA EPPLEY   LGT RAIN  69  66  90 E10       30.16F FOG
BEATRICE       CLOUDY    76  72  86 SE3       30.14S
FALLS CITY     LGT RAIN  70  69  97 SE7       30.14R
NEBRASKA CITY  RAIN      69  69 100 E5        30.17R
PLATTSMOUTH    RAIN      70  67  92 E5        30.18S
$$

NEZ044-045-051>053-067-271800-
OMAHA AREA

CITY           SKY/WX    TMP DP  RH WIND       PRES   REMARKS
OMAHA EPPLEY   LGT RAIN  69  66  90 E10       30.16F FOG
BLAIR          LGT RAIN  70  68  94 E9        30.16F
FREMONT        LGT RAIN  70  68  93 SE9       30.16F
MILLARD        CLOUDY    71  68  91 SE6       30.16F
OFFUTT AFB     LGT RAIN  70  70 100 E8        30.17F
PLATTSMOUTH    RAIN      70  67  92 E5        30.18S
WAHOO          DRIZZLE   70  67  89 E7        30.16R
$$


USA.gov is the U.S. government's official web portal to all federal, state and local government web resources and services.